Terminal Aerodrome Forecast
Issued by NWS

Home | Current Version | Previous Version | Graphics & Text | Print | Product List | Glossary On
Versions: 1 2 3 4 5 6 7 8 9 10 11 12 13 14 15 16 17 18 19 20 21 22 23 24 25 26 27 28 29 30 31 32 33 34 35 36 37 38 39 40
000
FTUS45 KGGW 251100
TAFOLF
TAF
KOLF 251136Z 2512/2612 33012KT P6SM OVC015
     FM252200 33010KT P6SM OVC050
     FM260200 VRB04KT P6SM BKN130=

USA.gov is the U.S. government's official web portal to all federal, state and local government web resources and services.